Location: Dongola
(37.3612°N, 89.1659°W)
Time: 14:35:26
(UTC+00:00)

Daily predictions for brighter satellites

Satellite Brightness Start Highest point End
(mag) Time Altitude Azimuth Time Altitude Azimuth Time Altitude Azimuth
Cosmos 1300 4.0 12:00:41 10° SSE 12:04:18 44° E 12:07:56 10° NNE
Cosmos 2228 4.4 12:01:04 10° SSE 12:05:04 42° E 12:09:04 10° NNE
Cosmos 1814 Rocket 4.0 12:00:44 10° SW 12:05:44 52° WNW 12:10:45 10° N
Cosmos 1626 Rocket 3.5 12:01:36 10° NNW 12:06:02 66° W 12:10:26 10° S
Cosmos 1937 Rocket 3.8 12:02:13 10° NNW 12:07:16 47° WSW 12:12:14 10° S
Cosmos 372 Rocket 4.0 12:03:18 10° NNW 12:08:36 87° ENE 12:13:49 10° SSE
SL-19 R/B 4.1 12:05:32 10° NNE 12:09:28 89° SE 12:12:50 10° SSW
GEOS 3 Rocket 3.8 12:04:58 10° SSE 12:10:14 60° WSW 12:15:34 10° NW
Cosmos 1455 Rocket 4.4 12:07:23 10° WSW 12:10:17 17° WNW 12:13:13 10° NNW
USA 276 4.4 12:09:49 11° WSW 12:10:23 11° SW 12:11:29 10° SSW
Envisat 3.1 12:07:19 10° N 12:12:16 54° WNW 12:17:11 10° SSW
ERS-2 3.3 12:10:57 10° SSW 12:13:52 23° W 12:16:23 12° NW
Cosmos 1689 Rocket 3.1 12:14:24 10° SSW 12:16:53 25° W 12:19:12 11° NW
ATLAS CENTAUR R/B 0.9 12:13:53 10° SW 12:17:36 72° WNW 12:21:16 10° NNE
NOAA 6 4.0 12:13:16 10° N 12:18:26 67° WNW 12:23:34 10° SSW
Cosmos 1953 3.5 12:16:02 10° SW 12:19:02 20° WNW 12:22:03 10° NNW
H-2A R/B 2.6 12:16:20 10° N 12:20:51 84° WNW 12:25:20 10° SSW
COSMOS 2428 4.4 12:20:32 12° WNW 12:21:57 12° NW 12:24:18 10° NNW
BREEZE M DEB (TANK) 1.8 12:20:56 15° WNW 12:22:22 37° SW 12:24:42 10° SSE
Cosmos 1908 4.1 12:19:23 10° SW 12:22:39 27° WNW 12:25:55 10° NNW
CORIOLIS 4.4 12:18:30 10° NNE 12:23:51 74° ESE 12:29:11 10° S
Cosmos 44 Rocket 3.8 12:22:43 10° NW 12:27:44 47° WSW 12:32:40 10° S
Cosmos 1758 Rocket 3.7 12:23:52 10° N 12:28:23 83° E 12:32:50 10° S
NOAA 11 4.3 12:26:55 10° NNE 12:32:25 84° ESE 12:37:51 10° SSW
USA 307 2.9 12:30:10 10° SW 12:34:21 65° NW 12:38:33 10° NE
Okean O Rocket 1.6 12:30:00 10° NNE 12:34:22 88° WNW 12:38:42 10° SSW
Cosmos 1315 Rocket 2.7 12:35:11 10° SSW 12:39:05 78° W 12:43:00 10° N
CZ-2C R/B 1.6 12:35:25 10° WSW 12:39:26 60° S 12:43:13 10° E
Cosmos 1092 Rocket 4.2 12:33:36 10° NNW 12:39:32 52° W 12:45:28 10° SSW
MOS 1-B 4.5 12:35:03 10° N 12:40:39 54° WNW 12:46:15 10° SSW
ATLAS 3B R/B 3.3 23:27:01 10° NW 23:34:01 68° WSW 23:41:16 10° SSE
BREEZE-M DEB (TANK) 2.1 23:33:27 10° WNW 23:36:19 79° SSW 23:40:08 10° SE
Cosmos 1300 2.7 23:32:39 10° N 23:36:29 89° WSW 23:40:17 10° S
FengYun 1-2 T 4.2 23:34:04 10° SSE 23:39:35 77° ENE 23:45:11 10° N
YAOGAN 1 4.0 23:39:50 10° ESE 23:42:30 16° ENE 23:45:11 10° NNE
Cosmos 1892 Rocket 3.5 23:38:28 10° S 23:42:47 70° E 23:47:06 10° NNE
Cosmos 2279 Rocket 4.0 23:37:28 10° N 23:43:46 74° E 23:49:59 10° SSE
ERS-2 3.2 23:41:02 10° NE 23:44:06 25° E 23:47:07 10° SSE
CZ-4B R/B 1.5 23:40:56 10° NNE 23:44:13 53° E 23:47:24 10° S
AQUARIUS 4.5 23:39:47 10° S 23:44:14 74° WSW 23:48:45 10° NNW
Cosmos 1606 Rocket 3.6 23:40:14 10° N 23:44:39 85° E 23:49:04 10° S
CORIOLIS 4.3 23:39:36 10° S 23:45:00 81° WSW 23:50:25 10° NNW
H-2A R/B 2.9 23:41:02 10° N 23:45:21 54° WNW 23:49:33 10° SSW
BREEZE-M DEB (TANK) 3.7 23:43:12 10° WNW 23:45:57 64° SW 23:54:29 10° SE
SMAP 3.9 23:44:53 10° S 23:49:26 56° W 23:54:01 10° NNW
Cosmos 2263 Rocket 4.1 23:44:57 10° WSW 23:49:44 27° WNW 23:54:32 10° N
Cosmos 2228 3.4 23:46:45 10° NNW 23:51:00 70° W 23:55:16 10° S
